Cloud_Cover
8 100 100 76 100 100 100 100 100 100 42 27 5 6 100 100 98 14 4 6 18 5 40 7 1 0 4 2 5 65 85 83 41 9 5 0 1 5 8 5 1 0 0 0 0
92 34 100 97 100 100 100 100 100 83 35 100 62 6 73 100 100 50 49 5 5 5 8 9 5 5 2 54 2 6 7 56 100 100 48 5 0 0 7 21 5 5 0 0 0
100 95 99 100 23 32 100 100 100 48 16 78 99 96 40 33 72 87 100 5 6 40 5 5 6 98 78 15 6 3 5 66 76 100 100 100 82 5 1 9 28 53 30 3 0
25 50 66 100 100 93 100 100 100 90 99 38 80 92 77 85 16 89 100 100 25 88 100 72 5 5 5 5 38 8 5 8 98 83 81 70 100 88 74 1 5 5 35 37 6
94 11 75 98 100 100 100 100 100 18 81 27 5 71 97 100 55 96 72 100 100 100 100 100 100 23 5 5 5 6 22 8 8 99 100 100 100 100 71 68 55 7 5 75 99
100 100 87 91 95 72 100 100 37 28 97 9 23 5 100 96 11 100 35 75 94 100 92 21 87 100 98 8 5 5 82 100 50 8 100 89 94 50 69 100 96 97 17 6 98
100 100 99 35 14 98 96 100 100 100 60 56 16 5 24 62 46 100 94 98 62 79 100 6 42 6 28 97 48 5 6 29 66 27 65 64 68 30 43 18 60 100 100 50 5
100 100 100 100 98 100 80 100 100 100 100 100 19 87 98 61 100 100 98 92 10 6 7 16 20 64 5 15 100 84 5 11 88 58 16 10 28 38 8 8 17 5 5 80 49
100 100 100 100 100 100 100 100 70 100 100 100 100 100 64 87 100 78 100 70 83 14 5 5 5 5 21 36 24 94 63 5 52 36 58 98 58 12 45 23 20 5 5 8 44
92 100 100 100 100 79 96 100 100 42 100 100 100 100 74 100 96 19 100 44 70 35 17 12 6 48 100 98 100 42 5 50 5 5 12 49 99 71 26 100 81 5 5 12 23
70 100 100 100 100 100 100 100 99 100 100 100 100 100 100 100 100 42 71 98 60 100 75 42 5 95 100 100 71 5 5 45 100 6 5 6 36 86 98 96 99 98 6 5 49
91 100 100 100 100 100 100 89 100 100 92 100 71 100 100 99 84 100 35 7 100 100 100 100 100 100 74 6 42 62 5 94 100 23 76 41 100 100 39 45 40 97 37 30 97
100 79 100 100 100 100 100 100 88 100 100 42 98 66 100 28 100 97 82 69 100 100 100 100 100 100 94 83 77 31 98 56 43 25 12 93 100 100 100 100 77 44 62 7 5
99 98 55 100 100 100 100 100 100 100 100 7 5 2 24 8 19 100 93 100 100 41 100 66 100 100 100 99 60 100 61 25 5 12 79 84 100 100 100 100 67 50 70 99 24
99 100 99 100 100 100 100 100 100 100 100 12 1 4 0 0 0 3 5 27 100 78 2 5 4 1 0 12 5 3 5 14 13 19 68 6 4 100 100 100 55 100 58 74 79
86 100 99 100 100 100 100 100 100 100 100 5 0 0 1 0 0 0 5 5 3 21 19 7 48 8 0 4 5 5 5 5 5 5 0 5 0 25 100 100 100 100 100 100 99
99 100 100 42 86 100 100 100 100 100 12 2 0 2 1 1 0 1 0 0 55 99 62 31 25 0 0 0 1 4 5 5 2 2 0 4 3 87 96 99 99 100 100 100 100
55 62 100 100 100 100 100 100 100 100 32 0 0 5 5 2 0 5 0 0 0 0 2 4 0 0 0 0 1 4 5 5 1 0 0 0 0 5 8 5 12 100 100 100 99
26 12 100 100 100 100 100 100 100 37 80 5 1 2 5 5 2 5 5 5 5 0 0 0 0 0 0 4 5 5 5 4 1 0 0 0 0 0 0 4 5 5 5 30 77
99 100 100 100 100 100 100 100 99 100 100 9 10 1 2 10 8 8 5 5 6 5 5 4 4 1 5 5 3 3 4 3 5 3 0 0 0 0 2 5 5 5 5 5 27
100 100 84 100 100 100 100 85 60 94 100 60 28 5 0 3 60 100 90 5 5 5 5 4 5 3 5 0 2 2 1 5 5 4 5 0 0 0 4 5 18 36 18 8 36
100 100 66 100 100 100 100 100 44 100 100 77 97 85 5 39 84 62 59 99 73 5 5 29 5 5 5 5 5 5 5 26 7 4 3 5 1 5 5 40 100 100 98 82 95
100 100 98 100 100 100 100 65 87 100 100 100 79 68 6 9 67 51 5 12 26 24 22 17 7 55 44 8 5 5 5 91 88 52 5 5 0 100 6 52 63 39 35 89 61
100 100 100 100 100 100 100 100 100 100 100 100 100 99 99 100 14 79 79 3 5 55 82 9 5 5 5 5 33 24 70 100 97 26 5 0 2 99 97 51 38 54 48 70 95
100 100 90 82 100 100 100 100 100 100 100 100 100 100 98 56 50 41 28 0 5 52 5 0 1 1 2 4 4 2 4 19 32 34 14 2 1 65 99 33 41 66 8 90 100
100 100 100 100 100 100 100 100 100 100 100 91 29 100 100 56 6 22 91 30 8 90 5 4 2 0 1 2 0 1 5 5 5 22 5 5 27 100 94 91 98 100 100 100 100
100 100 100 100 100 100 100 100 100 100 100 100 100 100 100 100 100 100 100 100 92 47 37 5 5 2 5 2 0 1 96 31 5 5 42 5 97 100 100 90 26 84 94 100 100